Location: Alando
(42.3054°N, 9.2895°E)
Time: 12:18:25
(UTC+00:00)

Meteor 2-10 Rocket - Pass Details

Date: 09 April 2020
Orbit: 734 x 885 km, 81.2° (Epoch: 05 June)

Event Time Altitude Azimuth Distance (km) Brightness Sun altitude
Exits shadow 20:33:53 52° 49° (NE) 975 3.9 -26.5°
Drops below altitude 10° 20:38:15 10° 16° (NNE) 2,406 6.3 -27.1°
Sets 20:40:43 0° 14° (NNE) 3,367 7.2 -27.4°
